map of GLH home
Great Circle Mapper logo
GLH - Airport
Location
City:  Greenville, Mississippi, United States
Name:Greenville Mid-Delta Airport
ICAO / IATA:KGLH / GLH
FAA:GLH

Details
Type:Airport (Part 139 Class I)
Use:Public/Civil
Latitude:3328'58"N (33.482881)
Longitude:9059'08"W (-90.985613)
Datum:WGS 1984
Elevation:131 ft (40 m)
Variation:0.22W (WMM2015 magnetic declination)
-0.10 annual change
Runways:2
Longest:8001 × 150 ft (2439 × 45.5 m), paved

Time
Time Zone:UTC-6 (DST-5)
Local Time:

Weather
METAR:KGLH 012353Z AUTO 32013KT 10SM BKN017 OVC024 13/11 A2983 RMK AO2 SLP110 60016 T01330106 10189 20133 53030
TAF:KGLH 012348Z 0200/0224 30015G24KT P6SM SCT020 BKN040 BKN100
FM021500 34012KT P6SM SKC

Related Locations
Nearby:
Farthest:MGV: 10945 mi / 17615 km
Margaret River, WA, AU

Find:

   beyond  
but within

Other Information
Maps:
Delays:
NOTAMs:
Links:
Sources:

  
flag of United States
flag of Mississippi
  

Airport Diagram

Airport diagram for GLH

Airport diagram PDF

Sectional Chart

Flight Planning
at skyvector.com

Satellite Image

Google Maps Satellite View

 

Copyright © 2004-2015 Karl L. Swartz. All rights reserved.
The Great Circle Mapper name and logo are trademarks of the Great Circle Mapper.
All other trademarks mentioned herein belong to their respective owners.
Please see credits for attibutions and further copyright information.

  Follow gcmap on Facebook Follow gcmap on Twitter

hCard Microformat

Geo Microformat